Time,TemperatureF,DewpointF,PressureIn,WindDirection,WindDirectionDegrees,WindSpeedMPH,WindSpeedGustMPH,Humidity,HourlyPrecipIn,Conditions,Clouds,dailyrainin,SoftwareType,DateUTC
2014-07-22 00:02:00,68.4,53.0,30.05,NW,315,0.0,0.0,58,0.00,,,0.00,WUHU216HW,2014-07-22 06:02:00,
2014-07-22 00:07:00,68.2,52.8,30.04,NW,315,0.0,0.0,58,0.00,,,0.00,WUHU216HW,2014-07-22 06:07:00,
2014-07-22 00:12:00,68.2,53.4,30.05,NW,315,0.0,0.0,59,0.00,,,0.00,WUHU216HW,2014-07-22 06:12:00,
2014-07-22 00:17:00,68.0,53.2,30.05,NW,315,0.0,0.0,59,0.00,,,0.00,WUHU216HW,2014-07-22 06:17:00,
2014-07-22 00:22:00,68.0,53.2,30.05,NW,315,0.0,0.0,59,0.00,,,0.00,WUHU216HW,2014-07-22 06:22:00,
2014-07-22 00:27:00,67.9,53.0,30.05,NW,315,0.0,0.0,59,0.00,,,0.00,WUHU216HW,2014-07-22 06:27:00,
2014-07-22 00:32:00,67.5,52.7,30.05,NW,315,0.0,0.0,59,0.00,,,0.00,WUHU216HW,2014-07-22 06:32:00,
2014-07-22 00:37:00,67.5,52.7,30.05,NW,315,0.0,0.0,59,0.00,,,0.00,WUHU216HW,2014-07-22 06:37:00,
2014-07-22 00:42:00,67.3,52.5,30.05,NW,315,0.0,0.0,59,0.00,,,0.00,WUHU216HW,2014-07-22 06:42:00,
2014-07-22 00:47:00,67.1,52.8,30.05,NW,315,0.0,0.0,60,0.00,,,0.00,WUHU216HW,2014-07-22 06:47:00,
2014-07-22 00:52:00,67.0,52.7,30.05,NW,315,0.0,0.0,60,0.00,,,0.00,WUHU216HW,2014-07-22 06:52:00,
2014-07-22 00:57:00,67.0,52.7,30.05,NW,315,0.7,0.7,60,0.00,,,0.00,WUHU216HW,2014-07-22 06:57:00,
2014-07-22 01:02:00,67.0,52.7,30.05,NW,315,0.0,0.7,60,0.00,,,0.00,WUHU216HW,2014-07-22 07:02:00,
2014-07-22 01:07:00,66.8,52.5,30.05,NW,315,0.2,1.3,60,0.00,,,0.00,WUHU216HW,2014-07-22 07:07:00,
2014-07-22 01:12:00,66.8,52.5,30.05,NW,315,0.0,1.3,60,0.00,,,0.00,WUHU216HW,2014-07-22 07:12:00,
2014-07-22 01:17:00,66.8,52.9,30.05,NW,315,0.0,0.4,61,0.00,,,0.00,WUHU216HW,2014-07-22 07:17:00,
2014-07-22 01:22:00,66.8,52.9,30.05,West,270,0.4,1.8,61,0.00,,,0.00,WUHU216HW,2014-07-22 07:22:00,
2014-07-22 01:27:00,66.8,52.9,30.05,WNW,293,1.1,1.8,61,0.00,,,0.00,WUHU216HW,2014-07-22 07:27:00,
2014-07-22 01:32:00,66.8,52.9,30.06,WSW,248,1.8,1.8,61,0.00,,,0.00,WUHU216HW,2014-07-22 07:32:00,
2014-07-22 01:37:00,66.8,52.5,30.06,SW,225,1.6,1.8,60,0.00,,,0.00,WUHU216HW,2014-07-22 07:37:00,
2014-07-22 01:42:00,66.8,52.5,30.07,SW,225,0.4,1.8,60,0.00,,,0.00,WUHU216HW,2014-07-22 07:42:00,
2014-07-22 01:47:00,66.8,52.5,30.07,SW,225,1.3,1.6,60,0.00,,,0.00,WUHU216HW,2014-07-22 07:47:00,
2014-07-22 01:52:00,66.8,52.5,30.07,SW,225,0.0,1.3,60,0.00,,,0.00,WUHU216HW,2014-07-22 07:52:00,
2014-07-22 01:57:00,66.8,52.5,30.07,SW,225,0.0,1.1,60,0.00,,,0.00,WUHU216HW,2014-07-22 07:57:00,
2014-07-22 02:02:00,66.8,52.9,30.07,SW,225,0.0,0.7,61,0.00,,,0.00,WUHU216HW,2014-07-22 08:02:00,
2014-07-22 02:07:00,66.8,52.9,30.06,SW,225,0.0,0.0,61,0.00,,,0.00,WUHU216HW,2014-07-22 08:07:00,
2014-07-22 02:12:00,66.6,52.7,30.05,NNE,23,1.6,1.6,61,0.00,,,0.00,WUHU216HW,2014-07-22 08:12:00,
2014-07-22 02:17:00,66.6,52.7,30.04,NE,45,0.9,1.6,61,0.00,,,0.00,WUHU216HW,2014-07-22 08:17:00,
2014-07-22 02:22:00,66.4,53.0,30.05,West,270,0.0,1.6,62,0.00,,,0.00,WUHU216HW,2014-07-22 08:22:00,
2014-07-22 02:27:00,66.4,53.5,30.06,West,270,0.0,0.4,63,0.00,,,0.00,WUHU216HW,2014-07-22 08:27:00,
2014-07-22 02:32:00,66.2,53.3,30.06,West,270,0.0,0.2,63,0.00,,,0.00,WUHU216HW,2014-07-22 08:32:00,
2014-07-22 02:37:00,66.2,53.3,30.06,West,270,0.7,1.8,63,0.00,,,0.00,WUHU216HW,2014-07-22 08:37:00,
2014-07-22 02:42:00,66.2,53.3,30.06,West,270,0.0,1.8,63,0.00,,,0.00,WUHU216HW,2014-07-22 08:42:00,
2014-07-22 02:47:00,66.2,53.3,30.06,West,270,0.0,0.4,63,0.00,,,0.00,WUHU216HW,2014-07-22 08:47:00,
2014-07-22 02:52:00,66.1,53.1,30.05,WNW,293,0.9,0.9,63,0.00,,,0.00,WUHU216HW,2014-07-22 08:52:00,
2014-07-22 02:57:00,65.9,52.9,30.06,West,270,0.0,0.9,63,0.00,,,0.00,WUHU216HW,2014-07-22 08:57:00,
2014-07-22 03:02:00,65.9,53.4,30.07,WSW,248,0.0,0.9,64,0.00,,,0.00,WUHU216HW,2014-07-22 09:02:00,
2014-07-22 03:07:00,65.9,53.4,30.07,WSW,248,0.0,0.9,64,0.00,,,0.00,WUHU216HW,2014-07-22 09:07:00,
2014-07-22 03:12:00,65.7,53.2,30.07,WSW,248,0.0,0.0,64,0.00,,,0.00,WUHU216HW,2014-07-22 09:12:00,
2014-07-22 03:17:00,65.5,53.0,30.07,WSW,248,0.0,0.7,64,0.00,,,0.00,WUHU216HW,2014-07-22 09:17:00,
2014-07-22 03:22:00,65.5,53.0,30.06,WSW,248,0.0,0.7,64,0.00,,,0.00,WUHU216HW,2014-07-22 09:22:00,
2014-07-22 03:27:00,65.3,53.3,30.06,WSW,248,0.0,0.0,65,0.00,,,0.00,WUHU216HW,2014-07-22 09:27:00,
2014-07-22 03:32:00,65.2,53.1,30.06,WSW,248,0.0,0.0,65,0.00,,,0.00,WUHU216HW,2014-07-22 09:32:00,
2014-07-22 03:37:00,65.2,53.1,30.07,WSW,248,0.0,0.4,65,0.00,,,0.00,WUHU216HW,2014-07-22 09:37:00,
2014-07-22 03:42:00,65.2,53.1,30.08,WSW,248,0.0,0.4,65,0.00,,,0.00,WUHU216HW,2014-07-22 09:42:00,
2014-07-22 03:47:00,65.0,52.9,30.07,WSW,248,0.0,0.2,65,0.00,,,0.00,WUHU216HW,2014-07-22 09:47:00,
2014-07-22 03:52:00,64.8,53.2,30.07,WSW,248,0.0,0.0,66,0.00,,,0.00,WUHU216HW,2014-07-22 09:52:00,
2014-07-22 03:57:00,64.8,53.2,30.07,WSW,248,0.0,0.7,66,0.00,,,0.00,WUHU216HW,2014-07-22 09:57:00,
2014-07-22 04:02:00,64.6,53.0,30.07,WSW,248,1.3,1.3,66,0.00,,,0.00,WUHU216HW,2014-07-22 10:02:00,
2014-07-22 04:07:00,64.4,52.8,30.08,WSW,248,0.0,1.3,66,0.00,,,0.00,WUHU216HW,2014-07-22 10:07:00,
2014-07-22 04:12:00,64.4,52.8,30.08,WSW,248,0.0,0.7,66,0.00,,,0.00,WUHU216HW,2014-07-22 10:12:00,
2014-07-22 04:17:00,64.4,52.8,30.08,WSW,248,0.0,0.4,66,0.00,,,0.00,WUHU216HW,2014-07-22 10:17:00,
2014-07-22 04:22:00,64.3,53.1,30.09,WSW,248,0.0,0.0,67,0.00,,,0.00,WUHU216HW,2014-07-22 10:22:00,
2014-07-22 04:27:00,64.3,53.1,30.09,WSW,248,0.4,0.4,67,0.00,,,0.00,WUHU216HW,2014-07-22 10:27:00,
2014-07-22 04:32:00,64.1,52.9,30.09,WSW,248,0.0,0.9,67,0.00,,,0.00,WUHU216HW,2014-07-22 10:32:00,
2014-07-22 04:37:00,63.9,52.8,30.08,WSW,248,0.0,0.9,67,0.00,,,0.00,WUHU216HW,2014-07-22 10:37:00,
2014-07-22 04:42:00,63.7,52.6,30.09,WSW,248,0.0,0.0,67,0.00,,,0.00,WUHU216HW,2014-07-22 10:42:00,
2014-07-22 04:47:00,63.5,52.8,30.09,WSW,248,0.0,0.0,68,0.00,,,0.00,WUHU216HW,2014-07-22 10:47:00,
2014-07-22 04:52:00,63.4,52.7,30.09,WSW,248,0.0,0.0,68,0.00,,,0.00,WUHU216HW,2014-07-22 10:52:00,
2014-07-22 04:57:00,63.2,52.5,30.09,WSW,248,0.0,0.0,68,0.00,,,0.00,WUHU216HW,2014-07-22 10:57:00,
2014-07-22 05:02:00,63.2,52.5,30.09,WSW,248,0.0,0.0,68,0.00,,,0.00,WUHU216HW,2014-07-22 11:02:00,
2014-07-22 05:07:00,63.0,52.7,30.09,WNW,293,1.6,1.6,69,0.00,,,0.00,WUHU216HW,2014-07-22 11:07:00,
2014-07-22 05:12:00,62.8,52.5,30.10,West,270,1.1,1.6,69,0.00,,,0.00,WUHU216HW,2014-07-22 11:12:00,
2014-07-22 05:17:00,62.8,52.5,30.10,West,270,0.0,1.3,69,0.00,,,0.00,WUHU216HW,2014-07-22 11:17:00,
2014-07-22 05:22:00,62.8,52.5,30.11,SW,225,0.2,0.7,69,0.00,,,0.00,WUHU216HW,2014-07-22 11:22:00,
2014-07-22 05:27:00,62.6,52.3,30.11,SW,225,0.7,0.7,69,0.00,,,0.00,WUHU216HW,2014-07-22 11:27:00,
2014-07-22 05:32:00,62.5,52.2,30.11,SW,225,0.0,0.7,69,0.00,,,0.00,WUHU216HW,2014-07-22 11:32:00,
2014-07-22 05:37:00,62.3,52.0,30.11,SW,225,0.0,0.4,69,0.00,,,0.00,WUHU216HW,2014-07-22 11:37:00,
2014-07-22 05:42:00,62.1,51.8,30.11,SW,225,0.0,0.0,69,0.00,,,0.00,WUHU216HW,2014-07-22 11:42:00,
2014-07-22 05:47:00,61.9,51.7,30.11,WSW,248,1.1,1.1,69,0.00,,,0.00,WUHU216HW,2014-07-22 11:47:00,
2014-07-22 05:52:00,61.7,51.5,30.11,WSW,248,0.0,1.1,69,0.00,,,0.00,WUHU216HW,2014-07-22 11:52:00,
2014-07-22 05:57:00,61.7,51.5,30.11,WSW,248,0.0,0.2,69,0.00,,,0.00,WUHU216HW,2014-07-22 11:57:00,
2014-07-22 06:02:00,61.6,51.4,30.11,WSW,248,1.1,1.1,69,0.00,,,0.00,WUHU216HW,2014-07-22 12:02:00,
2014-07-22 06:07:00,61.4,51.2,30.11,West,270,0.4,1.1,69,0.00,,,0.00,WUHU216HW,2014-07-22 12:07:00,
2014-07-22 06:13:00,61.6,51.4,30.11,West,270,0.0,1.1,69,0.00,,,0.00,WUHU216HW,2014-07-22 12:13:00,
2014-07-22 06:18:00,61.6,51.8,30.11,WSW,248,0.2,0.2,70,0.00,,,0.00,WUHU216HW,2014-07-22 12:18:00,
2014-07-22 06:23:00,61.6,51.8,30.11,SSW,203,2.0,2.0,70,0.00,,,0.00,WUHU216HW,2014-07-22 12:23:00,
2014-07-22 06:28:00,61.4,51.6,30.11,SW,225,1.3,2.0,70,0.00,,,0.00,WUHU216HW,2014-07-22 12:28:00,
2014-07-22 06:33:00,61.6,51.8,30.11,WSW,248,2.2,2.2,70,0.00,,,0.00,WUHU216HW,2014-07-22 12:33:00,
2014-07-22 06:38:00,61.6,51.8,30.11,West,270,1.3,2.2,70,0.00,,,0.00,WUHU216HW,2014-07-22 12:38:00,
2014-07-22 06:43:00,61.9,52.1,30.11,West,270,0.7,1.8,70,0.00,,,0.00,WUHU216HW,2014-07-22 12:43:00,
2014-07-22 06:48:00,62.1,52.7,30.12,WNW,293,0.0,1.6,71,0.00,,,0.00,WUHU216HW,2014-07-22 12:48:00,
2014-07-22 06:53:00,62.3,52.7,30.12,NW,315,0.9,1.3,71,0.00,,,0.00,WUHU216HW,2014-07-22 12:53:00,
2014-07-22 06:58:00,62.5,52.9,30.12,WNW,293,0.9,1.6,71,0.00,,,0.00,WUHU216HW,2014-07-22 12:58:00,
2014-07-22 07:03:00,62.8,53.3,30.11,NW,315,0.0,1.8,71,0.00,,,0.00,WUHU216HW,2014-07-22 13:03:00,
2014-07-22 07:08:00,63.0,53.5,30.11,NNW,338,0.9,1.8,71,0.00,,,0.00,WUHU216HW,2014-07-22 13:08:00,
2014-07-22 07:13:00,63.4,53.8,30.11,NNW,338,0.9,1.1,71,0.00,,,0.00,WUHU216HW,2014-07-22 13:13:00,
2014-07-22 07:18:00,63.7,53.8,30.11,NE,45,1.3,1.3,70,0.00,,,0.00,WUHU216HW,2014-07-22 13:18:00,
2014-07-22 07:23:00,64.1,54.2,30.11,NE,45,1.6,1.6,70,0.00,,,0.00,WUHU216HW,2014-07-22 13:23:00,
2014-07-22 07:28:00,64.4,54.5,30.12,NNE,23,0.0,1.6,70,0.00,,,0.00,WUHU216HW,2014-07-22 13:28:00,
2014-07-22 07:33:00,64.6,54.3,30.12,NNW,338,0.0,0.9,69,0.00,,,0.00,WUHU216HW,2014-07-22 13:33:00,
2014-07-22 07:38:00,64.8,54.5,30.12,North,0,0.0,1.3,69,0.00,,,0.00,WUHU216HW,2014-07-22 13:38:00,
2014-07-22 07:43:00,65.2,54.7,30.12,NNW,338,0.0,1.6,69,0.00,,,0.00,WUHU216HW,2014-07-22 13:43:00,
2014-07-22 07:48:00,65.5,54.6,30.12,North,0,0.0,1.6,68,0.00,,,0.00,WUHU216HW,2014-07-22 13:48:00,
2014-07-22 07:53:00,65.7,54.8,30.12,NNW,338,0.0,1.1,68,0.00,,,0.00,WUHU216HW,2014-07-22 13:53:00,
2014-07-22 07:58:00,66.1,54.7,30.12,NW,315,0.0,0.9,67,0.00,,,0.00,WUHU216HW,2014-07-22 13:58:00,
2014-07-22 08:03:00,66.6,55.3,30.12,ENE,68,0.4,0.9,67,0.00,,,0.00,WUHU216HW,2014-07-22 14:03:00,
2014-07-22 08:08:00,67.1,55.4,30.12,North,0,0.7,1.1,66,0.00,,,0.00,WUHU216HW,2014-07-22 14:08:00,
2014-07-22 08:13:00,67.5,55.3,30.12,NE,45,0.0,1.8,65,0.00,,,0.00,WUHU216HW,2014-07-22 14:13:00,
2014-07-22 08:18:00,68.0,55.8,30.12,NNE,23,1.1,1.8,65,0.00,,,0.00,WUHU216HW,2014-07-22 14:18:00,
2014-07-22 08:23:00,68.8,56.5,30.11,NNE,23,0.7,1.3,65,0.00,,,0.00,WUHU216HW,2014-07-22 14:23:00,
2014-07-22 08:28:00,69.3,57.0,30.11,NNE,23,1.1,2.7,65,0.00,,,0.00,WUHU216HW,2014-07-22 14:28:00,
2014-07-22 08:33:00,70.2,57.4,30.11,NE,45,2.5,2.7,64,0.00,,,0.00,WUHU216HW,2014-07-22 14:33:00,
2014-07-22 08:38:00,71.6,58.3,30.11,North,0,2.2,2.5,63,0.00,,,0.00,WUHU216HW,2014-07-22 14:38:00,
2014-07-22 08:43:00,72.5,58.8,30.11,NE,45,2.2,3.1,62,0.00,,,0.00,WUHU216HW,2014-07-22 14:43:00,
2014-07-22 08:48:00,73.1,58.3,30.12,NNE,23,0.2,3.1,60,0.00,,,0.00,WUHU216HW,2014-07-22 14:48:00,
2014-07-22 08:53:00,74.2,58.9,30.12,SW,225,0.0,3.4,59,0.00,,,0.00,WUHU216HW,2014-07-22 14:53:00,
2014-07-22 08:58:00,75.2,59.5,30.12,ENE,68,0.0,3.4,58,0.00,,,0.00,WUHU216HW,2014-07-22 14:58:00,
2014-07-22 09:03:00,76.0,59.6,30.12,SE,135,0.0,1.1,57,0.00,,,0.00,WUHU216HW,2014-07-22 15:03:00,
2014-07-22 09:08:00,76.5,59.6,30.12,SE,135,0.0,1.1,56,0.00,,,0.00,WUHU216HW,2014-07-22 15:08:00,
2014-07-22 09:13:00,77.2,59.8,30.12,North,0,1.3,1.8,55,0.00,,,0.00,WUHU216HW,2014-07-22 15:13:00,
2014-07-22 09:18:00,77.8,59.8,30.12,NNE,23,2.5,3.6,54,0.00,,,0.00,WUHU216HW,2014-07-22 15:18:00,
2014-07-22 09:23:00,78.1,59.6,30.12,SSW,203,0.0,3.6,53,0.00,,,0.00,WUHU216HW,2014-07-22 15:23:00,
2014-07-22 09:28:00,78.7,60.1,30.12,NE,45,2.0,2.0,53,0.00,,,0.00,WUHU216HW,2014-07-22 15:28:00,
2014-07-22 09:33:00,79.6,59.9,30.13,SW,225,2.2,2.2,51,0.00,,,0.00,WUHU216HW,2014-07-22 15:33:00,
2014-07-22 09:38:00,80.3,59.9,30.13,NNE,23,1.1,2.5,50,0.00,,,0.00,WUHU216HW,2014-07-22 15:38:00,
2014-07-22 09:43:00,80.8,59.9,30.13,NE,45,0.9,2.5,49,0.00,,,0.00,WUHU216HW,2014-07-22 15:43:00,
2014-07-22 09:48:00,80.6,59.0,30.12,NNW,338,1.1,1.8,48,0.00,,,0.00,WUHU216HW,2014-07-22 15:48:00,
2014-07-22 09:53:00,80.6,59.0,30.12,West,270,1.1,1.8,48,0.00,,,0.00,WUHU216HW,2014-07-22 15:53:00,
2014-07-22 09:58:00,81.4,59.8,30.12,WNW,293,0.0,1.8,48,0.00,,,0.00,WUHU216HW,2014-07-22 15:58:00,
2014-07-22 10:03:00,82.4,60.1,30.12,SW,225,0.4,2.5,47,0.00,,,0.00,WUHU216HW,2014-07-22 16:03:00,
2014-07-22 10:08:00,83.3,60.3,30.12,NNW,338,2.5,2.5,46,0.00,,,0.00,WUHU216HW,2014-07-22 16:08:00,
2014-07-22 10:13:00,83.5,59.9,30.12,WSW,248,0.0,2.5,45,0.00,,,0.00,WUHU216HW,2014-07-22 16:13:00,
2014-07-22 10:18:00,83.9,60.2,30.12,NNE,23,0.4,2.5,45,0.00,,,0.00,WUHU216HW,2014-07-22 16:18:00,
2014-07-22 10:23:00,83.9,59.6,30.12,North,0,1.8,2.5,44,0.00,,,0.00,WUHU216HW,2014-07-22 16:23:00,
2014-07-22 10:28:00,83.5,59.2,30.12,North,0,1.1,2.5,44,0.00,,,0.00,WUHU216HW,2014-07-22 16:28:00,
2014-07-22 10:33:00,83.5,59.9,30.12,NNW,338,0.9,2.5,45,0.00,,,0.00,WUHU216HW,2014-07-22 16:33:00,
2014-07-22 10:38:00,83.9,59.6,30.12,NW,315,1.1,2.2,44,0.00,,,0.00,WUHU216HW,2014-07-22 16:38:00,
2014-07-22 10:43:00,85.0,60.6,30.12,SSW,203,0.4,2.2,44,0.00,,,0.00,WUHU216HW,2014-07-22 16:43:00,
2014-07-22 10:48:00,86.0,60.3,30.12,North,0,0.7,1.3,42,0.00,,,0.00,WUHU216HW,2014-07-22 16:48:00,
2014-07-22 10:53:00,86.0,60.3,30.12,West,270,0.0,2.0,42,0.00,,,0.00,WUHU216HW,2014-07-22 16:53:00,
2014-07-22 10:58:00,86.2,60.5,30.13,NNW,338,2.9,2.9,42,0.00,,,0.00,WUHU216HW,2014-07-22 16:58:00,
2014-07-22 11:03:00,85.9,58.9,30.13,West,270,1.8,2.9,40,0.00,,,0.00,WUHU216HW,2014-07-22 17:03:00,
2014-07-22 11:08:00,86.2,60.5,30.13,WSW,248,2.2,2.9,42,0.00,,,0.00,WUHU216HW,2014-07-22 17:08:00,
2014-07-22 11:13:00,86.8,60.3,30.13,North,0,1.6,2.9,41,0.00,,,0.00,WUHU216HW,2014-07-22 17:13:00,
2014-07-22 11:18:00,86.9,60.5,30.13,NNE,23,1.8,3.1,41,0.00,,,0.00,WUHU216HW,2014-07-22 17:18:00,
2014-07-22 11:23:00,86.9,59.9,30.13,WNW,293,3.4,3.4,40,0.00,,,0.00,WUHU216HW,2014-07-22 17:23:00,
2014-07-22 11:28:00,87.5,60.3,30.13,NNE,23,0.2,3.4,40,0.00,,,0.00,WUHU216HW,2014-07-22 17:28:00,
2014-07-22 11:33:00,88.2,60.9,30.13,SSE,158,1.1,2.2,40,0.00,,,0.00,WUHU216HW,2014-07-22 17:33:00,
2014-07-22 11:38:00,88.4,60.3,30.13,NNW,338,0.4,3.4,39,0.00,,,0.00,WUHU216HW,2014-07-22 17:38:00,
2014-07-22 11:43:00,88.4,59.5,30.13,North,0,1.1,3.4,38,0.00,,,0.00,WUHU216HW,2014-07-22 17:43:00,
2014-07-22 11:48:00,88.2,59.3,30.13,WSW,248,0.7,3.4,38,0.00,,,0.00,WUHU216HW,2014-07-22 17:48:00,
2014-07-22 11:53:00,88.4,60.3,30.13,NW,315,0.9,1.6,39,0.00,,,0.00,WUHU216HW,2014-07-22 17:53:00,
2014-07-22 11:58:00,88.7,59.8,30.13,North,0,1.1,2.2,38,0.00,,,0.00,WUHU216HW,2014-07-22 17:58:00,
2014-07-22 12:03:00,88.7,59.0,30.12,West,270,0.4,2.2,37,0.00,,,0.00,WUHU216HW,2014-07-22 18:03:00,
2014-07-22 12:08:00,89.5,58.8,30.12,ENE,68,1.3,1.8,36,0.00,,,0.00,WUHU216HW,2014-07-22 18:08:00,
2014-07-22 12:13:00,89.5,58.0,30.12,WNW,293,2.5,3.6,35,0.00,,,0.00,WUHU216HW,2014-07-22 18:13:00,
2014-07-22 12:18:00,89.6,59.0,30.12,ENE,68,1.1,3.6,36,0.00,,,0.00,WUHU216HW,2014-07-22 18:18:00,
2014-07-22 12:23:00,89.5,58.0,30.12,NE,45,2.7,5.8,35,0.00,,,0.00,WUHU216HW,2014-07-22 18:23:00,
2014-07-22 12:28:00,89.8,59.1,30.12,NW,315,1.8,5.8,36,0.00,,,0.00,WUHU216HW,2014-07-22 18:28:00,
2014-07-22 12:33:00,90.0,58.5,30.12,ENE,68,2.7,4.3,35,0.00,,,0.00,WUHU216HW,2014-07-22 18:33:00,
2014-07-22 12:38:00,90.4,59.6,30.12,NE,45,3.4,4.3,36,0.00,,,0.00,WUHU216HW,2014-07-22 18:38:00,
2014-07-22 12:43:00,90.7,58.3,30.12,NE,45,4.7,4.7,34,0.00,,,0.00,WUHU216HW,2014-07-22 18:43:00,
2014-07-22 12:48:00,90.7,59.1,30.12,SSE,158,0.9,4.7,35,0.00,,,0.00,WUHU216HW,2014-07-22 18:48:00,
2014-07-22 12:53:00,91.1,58.7,30.11,SE,135,0.2,3.1,34,0.00,,,0.00,WUHU216HW,2014-07-22 18:53:00,
2014-07-22 12:58:00,91.1,58.7,30.12,ENE,68,1.8,2.2,34,0.00,,,0.00,WUHU216HW,2014-07-22 18:58:00,
2014-07-22 13:03:00,90.7,58.3,30.12,NE,45,0.9,3.1,34,0.00,,,0.00,WUHU216HW,2014-07-22 19:03:00,
2014-07-22 13:08:00,90.9,58.5,30.11,ENE,68,1.1,3.1,34,0.00,,,0.00,WUHU216HW,2014-07-22 19:08:00,
2014-07-22 13:13:00,91.4,59.0,30.12,SE,135,1.1,1.8,34,0.00,,,0.00,WUHU216HW,2014-07-22 19:13:00,
2014-07-22 13:18:00,92.0,58.6,30.11,ENE,68,2.9,2.9,33,0.00,,,0.00,WUHU216HW,2014-07-22 19:18:00,
2014-07-22 13:23:00,92.2,58.0,30.11,NNE,23,1.6,2.9,32,0.00,,,0.00,WUHU216HW,2014-07-22 19:23:00,
2014-07-22 13:28:00,92.2,58.0,30.11,SE,135,1.1,1.6,32,0.00,,,0.00,WUHU216HW,2014-07-22 19:28:00,
2014-07-22 13:33:00,92.5,58.2,30.11,ESE,113,1.1,2.0,32,0.00,,,0.00,WUHU216HW,2014-07-22 19:33:00,
2014-07-22 13:38:00,93.2,58.9,30.11,SE,135,0.9,2.0,32,0.00,,,0.00,WUHU216HW,2014-07-22 19:38:00,
2014-07-22 13:43:00,94.0,57.9,30.11,ESE,113,1.8,1.8,30,0.00,,,0.00,WUHU216HW,2014-07-22 19:43:00,
2014-07-22 13:48:00,93.8,58.5,30.12,North,0,1.6,1.8,31,0.00,,,0.00,WUHU216HW,2014-07-22 19:48:00,
2014-07-22 13:53:00,94.0,58.7,30.12,SSE,158,0.0,1.8,31,0.00,,,0.00,WUHU216HW,2014-07-22 19:53:00,
2014-07-22 13:58:00,94.3,58.2,30.11,NNW,338,0.4,1.1,30,0.00,,,0.00,WUHU216HW,2014-07-22 19:58:00,
2014-07-22 14:03:00,94.7,58.5,30.12,North,0,1.8,3.4,30,0.00,,,0.00,WUHU216HW,2014-07-22 20:03:00,
2014-07-22 14:08:00,95.0,58.9,30.11,SE,135,0.7,3.4,30,0.00,,,0.00,WUHU216HW,2014-07-22 20:08:00,
2014-07-22 14:13:00,95.6,58.1,30.11,ENE,68,3.1,3.1,29,0.00,,,0.00,WUHU216HW,2014-07-22 20:13:00,
2014-07-22 14:18:00,95.6,58.1,30.11,NE,45,1.6,4.0,29,0.00,,,0.00,WUHU216HW,2014-07-22 20:18:00,
2014-07-22 14:23:00,95.4,58.1,30.11,NE,45,0.2,4.0,29,0.00,,,0.00,WUHU216HW,2014-07-22 20:23:00,
2014-07-22 14:28:00,95.4,58.1,30.11,East,90,0.9,2.5,29,0.00,,,0.00,WUHU216HW,2014-07-22 20:28:00,
2014-07-22 14:33:00,95.6,56.0,30.11,ESE,113,0.7,3.4,27,0.00,,,0.00,WUHU216HW,2014-07-22 20:33:00,
2014-07-22 14:38:00,95.4,58.1,30.11,SE,135,0.2,3.4,29,0.00,,,0.00,WUHU216HW,2014-07-22 20:38:00,
2014-07-22 14:43:00,95.9,58.5,30.11,North,0,0.4,3.1,29,0.00,,,0.00,WUHU216HW,2014-07-22 20:43:00,
2014-07-22 14:48:00,96.3,57.7,30.11,NE,45,1.1,3.1,28,0.00,,,0.00,WUHU216HW,2014-07-22 20:48:00,
2014-07-22 14:53:00,96.7,58.0,30.10,NE,45,0.0,2.2,28,0.00,,,0.00,WUHU216HW,2014-07-22 20:53:00,
2014-07-22 14:58:00,96.7,56.9,30.10,NNW,338,0.9,2.0,27,0.00,,,0.00,WUHU216HW,2014-07-22 20:58:00,
2014-07-22 15:03:00,96.3,56.5,30.10,NNE,23,2.2,2.2,27,0.00,,,0.00,WUHU216HW,2014-07-22 21:03:00,
2014-07-22 15:08:00,96.1,58.6,30.10,ENE,68,1.1,2.2,29,0.00,,,0.00,WUHU216HW,2014-07-22 21:08:00,
2014-07-22 15:13:00,96.3,57.7,30.10,South,180,0.4,1.3,28,0.00,,,0.00,WUHU216HW,2014-07-22 21:13:00,
2014-07-22 15:18:00,96.5,56.7,30.10,ENE,68,3.8,3.8,27,0.00,,,0.00,WUHU216HW,2014-07-22 21:18:00,
2014-07-22 15:23:00,96.3,56.5,30.09,ESE,113,1.1,3.8,27,0.00,,,0.00,WUHU216HW,2014-07-22 21:23:00,
2014-07-22 15:28:00,96.3,56.5,30.09,ESE,113,1.1,1.6,27,0.00,,,0.00,WUHU216HW,2014-07-22 21:28:00,
2014-07-22 15:33:00,96.1,55.3,30.09,SSE,158,1.8,2.2,26,0.00,,,0.00,WUHU216HW,2014-07-22 21:33:00,
2014-07-22 15:38:00,95.8,57.3,30.09,East,90,0.4,2.2,28,0.00,,,0.00,WUHU216HW,2014-07-22 21:38:00,
2014-07-22 15:43:00,95.8,56.1,30.08,East,90,0.4,2.7,27,0.00,,,0.00,WUHU216HW,2014-07-22 21:43:00,
2014-07-22 15:48:00,95.8,55.0,30.08,NE,45,1.6,2.7,26,0.00,,,0.00,WUHU216HW,2014-07-22 21:48:00,
2014-07-22 15:53:00,96.1,55.3,30.08,West,270,0.7,2.5,26,0.00,,,0.00,WUHU216HW,2014-07-22 21:53:00,
2014-07-22 15:58:00,96.1,55.3,30.08,NE,45,0.9,3.1,26,0.00,,,0.00,WUHU216HW,2014-07-22 21:58:00,
2014-07-22 16:03:00,96.5,56.7,30.08,SE,135,1.1,3.1,27,0.00,,,0.00,WUHU216HW,2014-07-22 22:03:00,
2014-07-22 16:08:00,96.7,56.9,30.08,North,0,1.1,1.3,27,0.00,,,0.00,WUHU216HW,2014-07-22 22:08:00,
2014-07-22 16:13:00,96.8,55.9,30.08,ENE,68,1.3,2.5,26,0.00,,,0.00,WUHU216HW,2014-07-22 22:13:00,
2014-07-22 16:18:00,96.8,55.9,30.08,East,90,1.3,2.5,26,0.00,,,0.00,WUHU216HW,2014-07-22 22:18:00,
2014-07-22 16:23:00,96.5,55.6,30.08,ENE,68,2.5,4.9,26,0.00,,,0.00,WUHU216HW,2014-07-22 22:23:00,
2014-07-22 16:28:00,96.5,56.7,30.07,SE,135,4.0,4.9,27,0.00,,,0.00,WUHU216HW,2014-07-22 22:28:00,
2014-07-22 16:33:00,96.7,56.9,30.07,East,90,1.6,4.0,27,0.00,,,0.00,WUHU216HW,2014-07-22 22:33:00,
2014-07-22 16:38:00,96.8,55.9,30.07,NE,45,1.3,4.0,26,0.00,,,0.00,WUHU216HW,2014-07-22 22:38:00,
2014-07-22 16:43:00,97.2,56.3,30.07,NE,45,0.9,1.8,26,0.00,,,0.00,WUHU216HW,2014-07-22 22:43:00,
2014-07-22 16:48:00,97.2,56.3,30.07,ENE,68,2.5,2.9,26,0.00,,,0.00,WUHU216HW,2014-07-22 22:48:00,
2014-07-22 16:53:00,97.0,56.1,30.07,NE,45,0.4,6.3,26,0.00,,,0.00,WUHU216HW,2014-07-22 22:53:00,
2014-07-22 16:58:00,96.8,57.0,30.07,ENE,68,2.9,6.3,27,0.00,,,0.00,WUHU216HW,2014-07-22 22:58:00,
2014-07-22 17:03:00,96.7,55.8,30.07,ENE,68,2.2,2.9,26,0.00,,,0.00,WUHU216HW,2014-07-22 23:03:00,
2014-07-22 17:08:00,95.9,56.3,30.07,ENE,68,1.8,2.2,27,0.00,,,0.00,WUHU216HW,2014-07-22 23:08:00,
2014-07-22 17:13:00,95.0,55.5,30.07,NE,45,3.1,6.5,27,0.00,,,0.00,WUHU216HW,2014-07-22 23:13:00,
2014-07-22 17:18:00,94.5,55.1,30.07,NE,45,2.0,6.5,27,0.00,,,0.00,WUHU216HW,2014-07-22 23:18:00,
2014-07-22 17:23:00,94.1,57.0,30.08,NE,45,1.8,4.7,29,0.00,,,0.00,WUHU216HW,2014-07-22 23:23:00,
2014-07-22 17:28:00,94.3,57.1,30.07,NNE,23,2.7,4.7,29,0.00,,,0.00,WUHU216HW,2014-07-22 23:28:00,
2014-07-22 17:33:00,94.1,57.0,30.07,NE,45,2.5,4.7,29,0.00,,,0.00,WUHU216HW,2014-07-22 23:33:00,
2014-07-22 17:38:00,93.6,56.4,30.07,NE,45,2.5,4.7,29,0.00,,,0.00,WUHU216HW,2014-07-22 23:38:00,
2014-07-22 17:43:00,93.2,57.2,30.07,NE,45,2.2,4.7,30,0.00,,,0.00,WUHU216HW,2014-07-22 23:43:00,
2014-07-22 17:48:00,93.1,57.1,30.07,East,90,3.4,6.3,30,0.00,,,0.00,WUHU216HW,2014-07-22 23:48:00,
2014-07-22 17:53:00,92.5,57.5,30.07,NNE,23,2.7,6.3,31,0.00,,,0.00,WUHU216HW,2014-07-22 23:53:00,
2014-07-22 17:58:00,92.2,57.2,30.07,North,0,1.8,4.3,31,0.00,,,0.00,WUHU216HW,2014-07-22 23:58:00,
2014-07-22 18:03:00,91.4,57.4,30.07,NNE,23,3.1,6.0,32,0.00,,,0.00,WUHU216HW,2014-07-23 00:03:00,
2014-07-22 18:08:00,90.9,57.7,30.07,ENE,68,2.7,6.0,33,0.00,,,0.00,WUHU216HW,2014-07-23 00:08:00,
2014-07-22 18:13:00,90.4,57.3,30.07,North,0,2.0,4.7,33,0.00,,,0.00,WUHU216HW,2014-07-23 00:13:00,
2014-07-22 18:18:00,90.0,56.9,30.07,NE,45,2.7,3.6,33,0.00,,,0.00,WUHU216HW,2014-07-23 00:18:00,
2014-07-22 18:23:00,89.6,56.5,30.08,NNW,338,1.1,3.6,33,0.00,,,0.00,WUHU216HW,2014-07-23 00:23:00,
2014-07-22 18:28:00,89.3,57.1,30.08,ENE,68,2.9,3.6,34,0.00,,,0.00,WUHU216HW,2014-07-23 00:28:00,
2014-07-22 18:33:00,88.9,56.7,30.07,East,90,4.9,4.9,34,0.00,,,0.00,WUHU216HW,2014-07-23 00:33:00,
2014-07-22 18:38:00,88.6,56.4,30.08,NE,45,5.4,5.4,34,0.00,,,0.00,WUHU216HW,2014-07-23 00:38:00,